EW8930 Weather Reports


Display with metric or nautical units.
time (UTC)temp
F
wind
direction
speed
MPH
gust
MPH
rain 1hr
in
rain 24hr
in
rain mn
in
humidity
%
barometer
mb
20260503223054 61 240 13.0 25.0 0.00 0.00 0.00 40 1011.5
20260503221553 61 250 17.0 25.0 0.00 0.00 0.00 39 1011.5
20260503220052 61 240 16.0 23.0 0.00 0.00 0.00 39 1011.5
20260503214550 61 236 19.0 27.0 0.00 0.00 0.00 38 1011.5
20260503213056 61 257 17.0 30.0 0.00 0.00 0.00 38 1011.6
20260503211606 61 211 17.0 25.0 0.00 0.00 0.00 38 1011.7
20260503210049 61 238 18.0 31.0 0.00 0.00 0.00 36 1011.9
20260503204546 62 240 14.0 23.0 0.00 0.00 0.00 37 1011.9
20260503203049 63 217 13.0 27.0 0.00 0.00 0.00 36 1012.1
20260503201544 62 245 18.0 29.0 0.00 0.00 0.00 37 1012.2
20260503200054 62 241 18.0 25.0 0.00 0.00 0.00 36 1012.2
20260503194539 62 249 16.0 24.0 0.00 0.00 0.00 37 1012.5
20260503193042 62 250 16.0 25.0 0.00 0.00 0.00 36 1012.6
20260503191542 62 227 15.0 25.0 0.00 0.00 0.00 37 1013.0
20260503190041 62 223 16.0 28.0 0.00 0.00 0.00 37 1013.1
20260503184540 62 227 15.0 27.0 0.00 0.00 0.00 36 1013.4
20260503183030 61 233 16.0 25.0 0.00 0.00 0.00 36 1013.5
20260503181527 62 240 16.0 25.0 0.00 0.00 0.00 38 1013.6
20260503180042 62 238 15.0 26.0 0.00 0.00 0.00 40 1013.8
20260503174529 61 279 17.0 24.0 0.00 0.00 0.00 40 1014.1
20260503173029 61 234 18.0 25.0 0.00 0.00 0.00 38 1014.2
20260503171518 61 233 17.0 23.0 0.00 0.00 0.00 40 1014.3
20260503150106 54 279 12.0 20.0 0.00 0.00 0.00 58 1016.0
20260503120106 41 236 6.0 10.0 0.00 0.00 0.00 70 1016.6
20260503081555 36 238 1.0 5.0 0.00 0.00 0.00 78 1016.7
20260503080106 36 229 2.0 6.0 0.00 0.00 0.00 78 1016.8
20260503071557 37 222 2.0 5.0 0.00 0.00 0.00 77 1016.8
20260503054533 39 221 3.0 5.0 0.00 0.00 0.00 72 1017.1
20260503053032 40 208 3.0 6.0 0.00 0.00 0.00 72 1017.2
20260503051535 40 244 3.0 6.0 0.00 0.00 0.00 72 1017.3
20260503050027 40 213 4.0 6.0 0.00 0.00 0.00 72 1017.2
20260503044527 40 223 3.0 5.0 0.00 0.00 0.00 73 1017.3
20260503043021 40 220 3.0 5.0 0.00 0.00 0.00 71 1017.2
20260503041519 41 223 2.0 4.0 0.00 0.00 0.00 70 1017.3
20260503040015 41 229 3.0 4.0 0.00 0.00 0.00 70 1017.4
20260503034515 42 225 3.0 5.0 0.00 0.00 0.00 68 1017.4
20260503033026 43 226 3.0 5.0 0.00 0.00 0.00 67 1017.3
20260503031514 43 238 3.0 5.0 0.00 0.00 0.00 67 1017.5
20260503030026 43 205 1.0 3.0 0.00 0.00 0.00 66 1017.5
20260503024512 44 203 0.0 3.0 0.00 0.00 0.00 65 1017.6
20260503023012 44 229 2.0 4.0 0.00 0.00 0.00 64 1017.6
20260503021512 44 202 0.0 2.0 0.00 0.00 0.00 62 1017.6
20260503020011 44 223 1.0 3.0 0.00 0.00 0.00 62 1017.6
20260503014510 44 220 2.0 3.0 0.00 0.00 0.00 62 1017.5
20260503013010 44 219 1.0 2.0 0.00 0.00 0.00 61 1017.5
20260503011508 45 224 1.0 2.0 0.00 0.00 0.00 60 1017.4
20260503010007 45 221 1.0 2.0 0.00 0.00 0.00 56 1017.4
20260503004514 45 283 0.0 1.0 0.00 0.01 0.00 59 1017.3
20260503003008 45 284 0.0 2.0 0.00 0.01 0.00 62 1017.3
20260503001506 46 283 2.0 6.0 0.00 0.01 0.00 61 1017.3
20260503000012 46 279 3.0 6.0 0.00 0.01 0.00 55 1017.2
20260502234505 46 269 2.0 5.0 0.00 0.01 0.00 54 1017.2
20260502233005 47 298 3.0 6.0 0.00 0.01 0.00 55 1017.1
20260502231503 47 302 2.0 7.0 0.00 0.01 0.00 54 1017.2
20260502230004 47 281 1.0 7.0 0.00 0.01 0.00 56 1017.3
20260502224506 47 290 5.0 9.0 0.00 0.01 0.00 52 1017.3